Location: Innsbruck
(47.2657°N, 11.3914°E)
Time: 13:15:38
(UTC+02:00)

FENGYUN 1C DEB - Visible Passes

Search period start: 14 May 2025 00:00
Search period end: 24 May 2025 00:00
Orbit: 680 x 730 km, 98.6° (Epoch: 13 May)

Date Brightness Start Highest point End Pass type
(mag) Time Alt. Az. Time Alt. Az. Time Alt. Az.
14 May ? 00:40:08 35° E 00:41:16 41° ENE 00:45:53 10° N visible
14 May ? 02:19:04 27° W 02:19:08 27° W 02:23:20 10° NW visible
14 May ? 23:45:17 11° E 23:47:42 16° ENE 23:50:34 10° NNE visible
15 May ? 01:24:14 70° S 01:24:48 84° WSW 01:29:45 10° NNW visible
15 May ? 03:03:10 11° W 03:03:18 11° W 03:04:43 10° WNW visible
16 May ? 00:29:22 28° E 00:30:52 33° ENE 00:35:16 10° N visible
16 May ? 02:08:19 34° WSW 02:08:34 34° W 02:13:04 10° NNW visible
16 May ? 23:35:11 10° E 23:37:20 13° NE 23:39:30 10° NNE visible
17 May ? 01:13:26 61° SE 01:14:17 79° ENE 01:19:13 10° NNW visible
17 May ? 02:52:23 14° W 02:52:36 14° W 02:55:14 10° NW visible
18 May ? 00:18:33 22° E 00:20:24 27° ENE 00:24:31 10° N visible
18 May ? 01:57:29 42° WSW 01:57:56 43° W 02:02:38 10° NNW visible
18 May ? 23:26:02 10° ENE 23:26:55 10° NE 23:27:47 10° NE visible
19 May ? 01:02:35 48° SE 01:03:42 63° ENE 01:08:34 10° N visible
19 May ? 02:41:31 18° W 02:41:52 18° W 02:45:12 10° NW visible
20 May ? 00:07:39 17° E 00:09:52 23° ENE 00:13:38 10° N visible
20 May ? 01:46:35 50° SW 01:47:16 54° W 01:52:05 10° NNW visible
21 May ? 00:51:39 38° ESE 00:53:04 50° ENE 00:57:48 10° N visible
21 May ? 02:30:35 22° WSW 02:31:04 22° W 02:34:54 10° NW visible
21 May ? 23:56:41 13° E 23:59:17 19° ENE 00:02:37 10° NNE visible
22 May ? 01:35:37 55° SSW 01:36:30 68° WSW 01:41:24 10° NNW visible
23 May ? 00:40:39 30° ESE 00:42:22 40° ENE 00:46:56 10° N visible
23 May ? 02:19:35 27° WSW 02:20:12 28° W 02:24:25 10° NW visible
23 May ? 23:45:50 10° E 23:48:37 15° ENE 23:51:24 10° NNE visible
